Change the Weather History Date:

Wednesday, October 9, 2013

  Actual Average Record
Temperature  
Mean Temperature 64 °F -  
Max Temperature 80 °F 77 °F 82 °F (2012)
Min Temperature 47 °F 40 °F 41 °F (2011)
Degree Days  
Heating Degree Days 2    
Growing Degree Days 14 (Base 50)    
Moisture  
Dew Point 36 °F    
Average Humidity 39    
Maximum Humidity 62    
Minimum Humidity 18    
Precipitation  
Precipitation 0.00 in - - ()
Sea Level Pressure  
Sea Level Pressure 29.95 in    
Wind  
Wind Speed 8 mph (South)    
Max Wind Speed 21 mph    
Max Gust Speed 30 mph    
Visibility 10 miles    
Events Rain    
Averages and records for this station are not official NWS values.
T = Trace of Precipitation, MM = Missing Value Source: NWS Daily Summary

Daily Weather History Graph

Daily Weather History Graph

Search for Another Location

Airport or City:

Trip Planner

Search our weather history database for the weather conditions in past years. The results will help you decide how hot, cold, wet, or windy it might be!

Date:

Astronomy

Oct. 09, 2013 Rise Set
Actual Time 7:08 AM MDT 6:40 PM MDT
Civil Twilight 6:43 AM MDT 7:05 PM MDT
Nautical Twilight 6:14 AM MDT 7:34 PM MDT
Astronomical Twilight 5:45 AM MDT 8:03 PM MDT
Moon 11:55 AM MDT (10/9) 10:28 PM MDT (10/9)
Length of Visible Light 12h 22m
Length of Day
11h 32m
Waxing Crescent, 26% of the Moon is Illuminated
Oct 9
Waxing Crescent
Oct 11
First Quarter
Oct 18
Full
Oct 26
Last Quarter
Nov 3
New

Hourly Weather History & Observations

Time (MDT) Temp. Dew Point Humidity Pressure Visibility Wind Dir Wind Speed Gust Speed Precip Events Conditions
12:15 AM 58.6 °F 32.0 °F 37% 29.94 in 10.0 mi South 8.1 mph - N/A   Clear
12:35 AM 57.0 °F 32.7 °F 40% 29.93 in 10.0 mi SSE 6.9 mph - N/A   Clear
12:55 AM 57.0 °F 33.4 °F 41% 29.94 in 10.0 mi South 3.5 mph - N/A   Clear
1:15 AM 57.7 °F 32.5 °F 39% 29.94 in 10.0 mi South 6.9 mph - N/A   Clear
1:35 AM 56.3 °F 33.3 °F 42% 29.94 in 10.0 mi South 8.1 mph - N/A   Clear
1:55 AM 54.9 °F 33.8 °F 45% 29.94 in 10.0 mi SSW 5.8 mph - N/A   Clear
2:15 AM 56.1 °F 33.8 °F 43% 29.94 in 10.0 mi SW 5.8 mph - N/A   Clear
2:35 AM 56.3 °F 33.3 °F 42% 29.94 in 10.0 mi SW 6.9 mph - N/A   Clear
2:55 AM 54.9 °F 33.6 °F 45% 29.94 in 10.0 mi SSW 8.1 mph - N/A   Clear
3:15 AM 53.8 °F 34.0 °F 47% 29.94 in 10.0 mi South 6.9 mph - N/A   Clear
3:35 AM 51.6 °F 34.2 °F 51% 29.93 in 10.0 mi SW 4.6 mph - N/A   Clear
3:55 AM 52.5 °F 34.3 °F 50% 29.94 in 10.0 mi SW 5.8 mph - N/A   Clear
4:15 AM 52.7 °F 34.5 °F 50% 29.94 in 10.0 mi SSW 8.1 mph - N/A   Clear
4:35 AM 52.0 °F 34.7 °F 52% 29.94 in 10.0 mi South 6.9 mph - N/A   Clear
4:55 AM 49.6 °F 34.7 °F 56% 29.95 in 10.0 mi SSW 6.9 mph - N/A   Clear
5:15 AM 48.7 °F 34.7 °F 58% 29.96 in 10.0 mi SSW 3.5 mph - N/A   Clear
5:35 AM 50.5 °F 34.5 °F 54% 29.96 in 10.0 mi SSW 4.6 mph - N/A   Clear
5:55 AM 50.0 °F 34.7 °F 56% 29.96 in 10.0 mi SSW 5.8 mph - N/A   Clear
6:15 AM 48.9 °F 34.7 °F 58% 29.96 in 10.0 mi SSW 5.8 mph - N/A   Clear
6:35 AM 49.5 °F 34.7 °F 57% 29.97 in 10.0 mi South 6.9 mph - N/A   Clear
6:55 AM 49.5 °F 34.9 °F 57% 29.97 in 10.0 mi South 8.1 mph - N/A   Clear
7:15 AM 47.5 °F 34.9 °F 62% 29.98 in 10.0 mi SW 4.6 mph - N/A   Clear
7:35 AM 48.4 °F 35.1 °F 60% 29.98 in 10.0 mi Calm Calm - N/A   Clear
7:55 AM 52.0 °F 36.3 °F 55% 29.98 in 10.0 mi SSE 3.5 mph - N/A   Clear
8:15 AM 52.7 °F 36.5 °F 54% 29.99 in 10.0 mi SSE 3.5 mph - N/A   Clear
8:35 AM 54.1 °F 36.3 °F 51% 30.00 in 10.0 mi South 4.6 mph - N/A   Clear
8:55 AM 56.8 °F 36.3 °F 46% 30.01 in 10.0 mi South 4.6 mph - N/A   Clear
9:15 AM 59.9 °F 36.7 °F 42% 30.01 in 10.0 mi SSE 8.1 mph - N/A   Clear
9:35 AM 61.5 °F 36.9 °F 40% 30.02 in 10.0 mi SE 9.2 mph - N/A   Clear
9:55 AM 63.1 °F 38.3 °F 40% 30.02 in 10.0 mi SSE 10.4 mph - N/A   Clear
10:15 AM 66.2 °F 37.9 °F 35% 30.01 in 10.0 mi SE 11.5 mph - N/A   Clear
10:35 AM 68.5 °F 38.1 °F 33% 30.01 in 10.0 mi SE 11.5 mph - N/A   Clear
10:55 AM 70.7 °F 38.5 °F 31% 30.00 in 10.0 mi SSE 11.5 mph - N/A   Clear
11:15 AM 72.7 °F 36.7 °F 27% 30.00 in 10.0 mi South 15.0 mph 18.4 mph N/A   Clear
11:35 AM 74.5 °F 35.2 °F 24% 30.00 in 10.0 mi South 13.8 mph - N/A   Clear
11:55 AM 74.5 °F 34.3 °F 23% 30.00 in 10.0 mi South 13.8 mph 23.0 mph N/A   Clear
12:15 PM 75.7 °F 33.8 °F 22% 29.99 in 10.0 mi South 12.7 mph 19.6 mph N/A   Clear
12:35 PM 75.9 °F 32.5 °F 20% 29.98 in 10.0 mi SW 12.7 mph 21.9 mph N/A   Clear
12:55 PM 76.8 °F 32.4 °F 20% 29.97 in 10.0 mi South 13.8 mph 21.9 mph N/A   Clear
1:15 PM 77.7 °F 32.7 °F 19% 29.96 in 10.0 mi South 11.5 mph 23.0 mph N/A   Clear
1:35 PM 78.3 °F 36.1 °F 22% 29.95 in 10.0 mi South 13.8 mph 25.3 mph N/A   Clear
1:55 PM 78.3 °F 36.9 °F 22% 29.94 in 10.0 mi South 16.1 mph 25.3 mph N/A   Clear
2:15 PM 79.5 °F 37.0 °F 22% 29.93 in 10.0 mi SSE 17.3 mph - N/A   Clear
2:55 PM 79.9 °F 37.2 °F 22% 29.92 in 10.0 mi South 15.0 mph 26.5 mph N/A   Clear
3:15 PM 79.0 °F 36.0 °F 21% 29.92 in 10.0 mi South 16.1 mph 21.9 mph N/A   Clear
3:35 PM 79.5 °F 37.0 °F 22% 29.91 in 10.0 mi South 15.0 mph 23.0 mph N/A   Mostly Cloudy
3:55 PM 80.6 °F 36.7 °F 21% 29.91 in 10.0 mi South 18.4 mph 26.5 mph N/A   Overcast
4:15 PM 78.6 °F 36.1 °F 22% 29.90 in 10.0 mi South 17.3 mph 21.9 mph N/A   Scattered Clouds
4:35 PM 79.0 °F 36.3 °F 21% 29.90 in 10.0 mi South 19.6 mph 26.5 mph N/A   Scattered Clouds
4:55 PM 77.7 °F 37.0 °F 23% 29.90 in 10.0 mi SSW 18.4 mph 25.3 mph N/A   Overcast
5:15 PM 74.1 °F 42.3 °F 32% 29.90 in 10.0 mi South 16.1 mph 29.9 mph N/A Rain Light Rain
5:55 PM 70.9 °F 41.4 °F 34% 29.89 in 10.0 mi SE 3.5 mph - N/A   Clear
6:15 PM 72.5 °F 38.7 °F 29% 29.89 in 10.0 mi South 10.4 mph 16.1 mph N/A   Clear
6:35 PM 76.1 °F 29.8 °F 18% 29.89 in 10.0 mi South 20.7 mph - N/A   Clear
6:55 PM 74.5 °F 33.4 °F 22% 29.89 in 10.0 mi South 16.1 mph 21.9 mph N/A   Clear
7:15 PM 72.7 °F 34.0 °F 24% 29.90 in 10.0 mi South 11.5 mph - N/A   Clear
7:35 PM 70.9 °F 35.2 °F 27% 29.90 in 10.0 mi SE 8.1 mph - N/A   Clear
7:55 PM 64.8 °F 39.2 °F 39% 29.91 in 10.0 mi SSE 3.5 mph - N/A   Clear
8:15 PM 64.2 °F 39.7 °F 41% 29.91 in 10.0 mi SE 6.9 mph - N/A   Clear
8:35 PM 62.8 °F 41.0 °F 45% 29.91 in 10.0 mi SSE 5.8 mph - N/A   Clear
8:55 PM 62.6 °F 41.9 °F 47% 29.92 in 10.0 mi SSE 8.1 mph - N/A   Clear
9:15 PM 62.4 °F 42.3 °F 48% 29.93 in 10.0 mi SSE 5.8 mph - N/A   Scattered Clouds
9:35 PM 60.8 °F 42.4 °F 51% 29.93 in 10.0 mi SSW 3.5 mph - N/A   Mostly Cloudy
9:55 PM 61.0 °F 41.4 °F 48% 29.92 in 10.0 mi SW 3.5 mph - N/A   Overcast
10:15 PM 62.1 °F 41.9 °F 48% 29.93 in 10.0 mi South 4.6 mph - N/A   Overcast
10:55 PM 60.8 °F 40.6 °F 47% 29.92 in 10.0 mi SSW 5.8 mph - N/A   Clear
11:15 PM 61.0 °F 40.3 °F 46% 29.92 in 10.0 mi SSW 5.8 mph - N/A   Clear
11:35 PM 59.9 °F 40.5 °F 49% 29.92 in 10.0 mi SSW 6.9 mph - N/A   Clear
11:55 PM 62.1 °F 41.0 °F 46% 29.93 in 10.0 mi South 5.8 mph - N/A   Mostly Cloudy